This demonstration page uses our WeatherBlox Daily Observations layout. Learn more.

Left ArrowRight Arrow

41.55636, -103.73856

Hourly Observations for May 25, 2020

Temp ( °F °C ) Dew Point ( °F °C ) Humidity (%) Winds ( mph kmh ) Pressure ( in mb ) Visibility ( mi km ) Precip ( " mm )
6:58 pm 18:58 Mostly Cloudy with Light Showers 49 9.7 42 5.8 77 77 N 5 7 30.03 1017 10 16 0.02 0.51
7:58 pm 19:58 Cloudy 48 9 44 6.4 84 84 E 6 9 30.02 1017 10 16 0.01 0.25
8:58 pm 20:58 Mostly Cloudy 48 9 44 6.4 84 84 Calm 30.06 1018 10 16 0.00 0.00
9:58 pm 21:58 Cloudy 48 9 44 6.5 85 85 Calm 30.06 1018 10 16 0.00 0.00
10:58 pm 22:58 Mostly Clear 47 8.1 43 6 87 87 W 3 6 30.07 1018 10 16 0.00 0.00
11:58 pm 23:58 Mostly Cloudy 45 7 42 5.6 91 91 Calm 30.06 1018 10 16 0.00 0.00
12:58 am 00:58 Mostly Cloudy 44 6.8 38 3.6 80 80 NNE 10 17 30.07 1018 10 16 0.00 0.00
1:58 am 01:58 Mostly Cloudy 44 6.6 38 3.6 81 81 NNW 5 7 30.07 1018 10 16 0.00 0.00
2:58 am 02:58 Mostly Cloudy 42 5.4 38 3.1 85 85 Calm 30.10 1019 10 16 0.00 0.00
3:58 am 03:58 Clear 40 4.2 36 2.3 88 88 WSW 5 7 30.15 1021 10 16 0.00 0.00
4:58 am 04:58 Clear 39 4.1 36 2.4 89 89 W 6 9 30.16 1021 10 16 0.00 0.00
5:58 am 05:58 Sunny 38 3.3 36 2.1 92 92 W 6 9 30.17 1022 10 16 0.00 0.00
6:58 am 06:58 Sunny 41 5.1 40 4.3 95 95 WNW 6 9 30.16 1021 10 16 0.00 0.00
7:58 am 07:58 Sunny 45 7.3 40 4.4 82 82 NW 9 15 30.14 1021 10 16 0.00 0.00
8:58 am 08:58 Mostly Sunny 49 9.5 41 4.8 73 73 NW 14 22 30.11 1020 10 16 0.00 0.00
9:58 am 09:58 Mostly Sunny 52 11.3 39 4.1 62 62 NW 15 24 30.10 1019 10 16 0.00 0.00
10:58 am 10:58 Mostly Cloudy 55 12.8 38 3.2 52 52 NNW 17 28 30.09 1019 10 16 0.00 0.00
11:58 am 11:58 Partly Cloudy 58 14.7 39 3.7 48 48 N 14 22 30.07 1018 10 16 0.00 0.00
12:58 pm 12:58 Partly Cloudy 61 15.9 34 1.1 37 37 N 15 24 30.06 1018 10 16 0.00 0.00
1:58 pm 13:58 Mostly Cloudy 62 16.7 35 1.6 36 36 N 12 19 30.03 1017 10 16 0.00 0.00
2:58 pm 14:58 Mostly Cloudy 64 17.6 34 1 33 33 NNW 12 19 30.03 1017 10 16 0.00 0.00
3:58 pm 15:58 Mostly Cloudy 63 17.1 31 -0.3 31 31 N 14 22 30.03 1017 10 16 0.00 0.00
4:58 pm 16:58 Mostly Sunny 63 17 32 0 32 32 N 9 15 30.03 1017 10 16 0.00 0.00
5:58 pm 17:58 Mostly Sunny 63 17.2 32 -0.1 31 31 N 10 17 30.03 1017 10 16 0.00 0.00

Powered by AerisWeather